Hourly Weather Bashkatovo

Today, 19 June, Saturday

Time Temperature Precipitation Wind Pressure Humidity
00:00 +14°C° 0 mm 3 mps 748 mmHg 92%
01:00 +13°C° 0 mm 3 mps 748 mmHg 93%
02:00 +13°C° 0 mm 3 mps 748 mmHg 94%
03:00 +14°C° 0 mm 3 mps 749 mmHg 93%
04:00 +14°C° 0 mm 3 mps 749 mmHg 92%
05:00 +14°C° 0 mm 3 mps 749 mmHg 91%
06:00 +17°C° 0 mm 3 mps 749 mmHg 87%
07:00 +19°C° 0 mm 4 mps 749 mmHg 83%
08:00 +20°C° 0 mm 4 mps 749 mmHg 78%
09:00 +21°C° 0 mm 4 mps 749 mmHg 75%
10:00 +22°C° 0 mm 4 mps 749 mmHg 72%
11:00 +25°C° 0 mm 4 mps 749 mmHg 69%
12:00 +25°C° 0 mm 4 mps 748 mmHg 67%
13:00 +25°C° 0 mm 4 mps 748 mmHg 66%
14:00 +26°C° 0 mm 4 mps 748 mmHg 64%
15:00 +25°C° 0 mm 4 mps 748 mmHg 68%
16:00 +25°C° 0 mm 3 mps 748 mmHg 71%
17:00 +25°C° 0 mm 3 mps 747 mmHg 74%
18:00 +22°C° 0 mm 3 mps 747 mmHg 78%
19:00 +20°C° 0 mm 3 mps 747 mmHg 82%
20:00 +18°C° 0 mm 3 mps 747 mmHg 87%
21:00 +18°C° 0 mm 3 mps 747 mmHg 88%
22:00 +17°C° 0 mm 3 mps 747 mmHg 89%
23:00 +16°C° 0 mm 3 mps 747 mmHg 90%

Tomorrow, 20 June, Sunday

Time Temperature Precipitation Wind Pressure Humidity
00:00 +16°C° 0 mm 3 mps 747 mmHg 90%
01:00 +14°C° 0 mm 3 mps 747 mmHg 90%
02:00 +14°C° 0 mm 3 mps 747 mmHg 91%
03:00 +14°C° 0 mm 3 mps 747 mmHg 90%
04:00 +15°C° 0 mm 2 mps 747 mmHg 90%
05:00 +16°C° 0 mm 2 mps 747 mmHg 90%
06:00 +18°C° 0 mm 3 mps 747 mmHg 85%
07:00 +19°C° 0 mm 4 mps 747 mmHg 79%
08:00 +21°C° 0 mm 4 mps 747 mmHg 74%
09:00 +22°C° 0 mm 4 mps 747 mmHg 70%
10:00 +23°C° 0 mm 4 mps 747 mmHg 66%
11:00 +25°C° 0 mm 4 mps 747 mmHg 62%
12:00 +25°C° 0 mm 4 mps 747 mmHg 62%
13:00 +25°C° 0 mm 4 mps 746 mmHg 62%
14:00 +26°C° 0 mm 4 mps 746 mmHg 61%
15:00 +25°C° 0 mm 4 mps 746 mmHg 65%
16:00 +25°C° 0 mm 4 mps 746 mmHg 69%
17:00 +25°C° 0 mm 3 mps 746 mmHg 72%
18:00 +24°C° 0 mm 3 mps 745 mmHg 77%
19:00 +21°C° 0 mm 3 mps 745 mmHg 81%
20:00 +20°C° 0 mm 3 mps 745 mmHg 86%
21:00 +19°C° 0 mm 3 mps 745 mmHg 87%
22:00 +19°C° 0 mm 3 mps 745 mmHg 88%
23:00 +18°C° 0 mm 3 mps 745 mmHg 89%

Day after tomorrow, 21 June, Monday

Time Temperature Precipitation Wind Pressure Humidity
00:00 +18°C° 0 mm 3 mps 745 mmHg 89%
01:00 +18°C° 0 mm 3 mps 745 mmHg 90%
02:00 +17°C° 0 mm 3 mps 745 mmHg 90%
03:00 +18°C° 0 mm 4 mps 745 mmHg 88%
04:00 +18°C° 0 mm 4 mps 744 mmHg 87%
05:00 +18°C° 0 mm 4 mps 744 mmHg 86%
06:00 +20°C° 0 mm 4 mps 744 mmHg 81%
07:00 +21°C° 0 mm 5 mps 744 mmHg 76%
08:00 +23°C° 0 mm 5 mps 744 mmHg 72%
09:00 +25°C° 0 mm 5 mps 744 mmHg 69%
10:00 +26°C° 0 mm 5 mps 744 mmHg 67%
11:00 +27°C° 0 mm 5 mps 745 mmHg 64%
12:00 +27°C° 0 mm 5 mps 744 mmHg 64%
13:00 +28°C° 0 mm 5 mps 744 mmHg 64%
14:00 +29°C° 0 mm 5 mps 744 mmHg 63%
15:00 +28°C° 0 mm 5 mps 744 mmHg 67%
16:00 +28°C° 0 mm 4 mps 744 mmHg 70%
17:00 +27°C° 0 mm 4 mps 744 mmHg 73%
18:00 +26°C° 0 mm 4 mps 744 mmHg 78%
19:00 +23°C° 0 mm 4 mps 744 mmHg 84%
20:00 +22°C° 0 mm 3 mps 744 mmHg 89%
21:00 +21°C° 0 mm 3 mps 744 mmHg 88%
22:00 +21°C° 0 mm 3 mps 744 mmHg 88%
23:00 +20°C° 0 mm 3 mps 744 mmHg 87%

22 June, Tuesday

Time Temperature Precipitation Wind Pressure Humidity
00:00 +20°C° 0 mm 3 mps 744 mmHg 87%
01:00 +19°C° 0 mm 3 mps 744 mmHg 87%
02:00 +19°C° 0 mm 3 mps 744 mmHg 87%
03:00 +19°C° 0 mm 3 mps 744 mmHg 87%
04:00 +19°C° 0 mm 3 mps 744 mmHg 86%
05:00 +20°C° 0 mm 4 mps 744 mmHg 86%
06:00 +21°C° 0 mm 4 mps 745 mmHg 82%
07:00 +23°C° 0 mm 4 mps 745 mmHg 77%
08:00 +26°C° 0 mm 5 mps 745 mmHg 72%
09:00 +27°C° 0 mm 5 mps 745 mmHg 69%
10:00 +28°C° 0 mm 5 mps 745 mmHg 66%
11:00 +29°C° 0 mm 6 mps 745 mmHg 63%
12:00 +29°C° 0 mm 5 mps 745 mmHg 63%
13:00 +30°C° 0 mm 5 mps 745 mmHg 63%
14:00 +30°C° 0 mm 5 mps 745 mmHg 62%
15:00 +30°C° 0 mm 4 mps 745 mmHg 66%
16:00 +29°C° 0 mm 4 mps 745 mmHg 70%
17:00 +29°C° 0 mm 4 mps 745 mmHg 73%
18:00 +27°C° 0 mm 4 mps 745 mmHg 78%
19:00 +26°C° 0 mm 4 mps 745 mmHg 82%
20:00 +25°C° 0 mm 3 mps 745 mmHg 86%
21:00 +24°C° 0 mm 3 mps 745 mmHg 87%
22:00 +22°C° 0 mm 3 mps 745 mmHg 88%
23:00 +21°C° 0 mm 3 mps 745 mmHg 89%

23 June, Wednesday

Time Temperature Precipitation Wind Pressure Humidity
00:00 +21°C° 0 mm 3 mps 745 mmHg 88%
01:00 +21°C° 0 mm 3 mps 745 mmHg 87%
02:00 +20°C° 0 mm 3 mps 745 mmHg 87%
03:00 +20°C° 0 mm 3 mps 745 mmHg 87%
04:00 +21°C° 0 mm 3 mps 745 mmHg 87%
05:00 +21°C° 0 mm 3 mps 745 mmHg 86%
06:00 +22°C° 0 mm 3 mps 746 mmHg 80%
07:00 +25°C° 0 mm 4 mps 746 mmHg 74%
08:00 +26°C° 0 mm 5 mps 746 mmHg 69%
09:00 +27°C° 0 mm 5 mps 746 mmHg 66%
10:00 +28°C° 0 mm 5 mps 746 mmHg 63%
11:00 +29°C° 0 mm 5 mps 746 mmHg 60%
12:00 +29°C° 0 mm 5 mps 746 mmHg 60%
13:00 +30°C° 0 mm 5 mps 746 mmHg 60%
14:00 +30°C° 0 mm 4 mps 746 mmHg 60%
15:00 +30°C° 0 mm 4 mps 746 mmHg 64%
16:00 +29°C° 0 mm 3 mps 746 mmHg 67%
17:00 +29°C° 0 mm 3 mps 746 mmHg 71%
18:00 +27°C° 0 mm 3 mps 746 mmHg 75%
19:00 +26°C° 0 mm 3 mps 746 mmHg 79%
20:00 +25°C° 0 mm 3 mps 746 mmHg 83%
21:00 +24°C° 0 mm 3 mps 746 mmHg 83%
22:00 +22°C° 0 mm 3 mps 746 mmHg 83%
23:00 +22°C° 0 mm 3 mps 746 mmHg 83%

24 June, Thursday

Time Temperature Precipitation Wind Pressure Humidity
00:00 +21°C° 0 mm 3 mps 746 mmHg 83%
01:00 +21°C° 0 mm 3 mps 746 mmHg 83%
02:00 +21°C° 0 mm 3 mps 746 mmHg 83%
03:00 +21°C° 0 mm 3 mps 746 mmHg 83%
04:00 +21°C° 0 mm 2 mps 746 mmHg 84%
05:00 +21°C° 0 mm 2 mps 746 mmHg 84%
06:00 +24°C° 0 mm 3 mps 746 mmHg 80%
07:00 +25°C° 0 mm 3 mps 746 mmHg 75%
08:00 +27°C° 0 mm 3 mps 747 mmHg 71%
09:00 +28°C° 0 mm 3 mps 747 mmHg 67%
10:00 +29°C° 0 mm 3 mps 747 mmHg 63%
11:00 +30°C° 0 mm 4 mps 747 mmHg 59%
12:00 +30°C° 0 mm 4 mps 747 mmHg 57%
13:00 +32°C° 0 mm 4 mps 747 mmHg 55%
14:00 +32°C° 0 mm 4 mps 746 mmHg 53%
15:00 +31°C° 0 mm 3 mps 746 mmHg 58%
16:00 +30°C° 0 mm 3 mps 746 mmHg 62%
17:00 +30°C° 0 mm 3 mps 746 mmHg 67%
18:00 +28°C° 0.1 mm 2 mps 746 mmHg 70%
19:00 +27°C° 0.1 mm 2 mps 746 mmHg 74%
20:00 +25°C° 0.1 mm 2 mps 745 mmHg 77%
21:00 +25°C° 0 mm 2 mps 745 mmHg 79%
22:00 +24°C° 0 mm 2 mps 746 mmHg 81%
23:00 +23°C° 0 mm 2 mps 746 mmHg 83%
Show more